This is the latest recevied weather packets stored in our database for station/object VE3MJM-WX. If no packets are shown the sender has not sent any weather packets the latest 10 day(s).
| Time | Temp. | Humidity | Pressure | Rain* | Wind** | Luminosity | Snow |
|---|---|---|---|---|---|---|---|
| 1777489323 | 8.33° C | 87% | 1004.7 hPa | 0 mm | - | - | - |
| 1777488421 | 8.33° C | 88% | 1004.9 hPa | 0 mm | - | - | - |
| 1777487518 | 8.33° C | 84% | 1005 hPa | 0 mm | - | - | - |
| 1777486616 | 8.33° C | 90% | 1004.9 hPa | 0 mm | - | - | - |
| 1777485713 | 8.89° C | 89% | 1004.6 hPa | 0 mm | - | - | - |
| 1777484811 | 8.89° C | 84% | 1005.2 hPa | 0 mm | - | - | - |
| 1777483908 | 8.89° C | 85% | 1005.1 hPa | 0 mm | - | - | - |
| 1777483005 | 8.89° C | 85% | 1005.1 hPa | 0 mm | - | - | - |
| 1777482103 | 9.44° C | 85% | 1004.9 hPa | 0 mm | - | - | - |
| 1777481200 | 9.44° C | 83% | 1005.1 hPa | 0 mm | - | - | - |
| 1777480298 | 10° C | 84% | 1004.7 hPa | 0 mm | - | - | - |
| 1777479395 | 10° C | 82% | 1004.9 hPa | 0 mm | - | - | - |
| 1777478493 | 10° C | 85% | 1005.5 hPa | 0 mm | - | - | - |
| 1777477590 | 10° C | 85% | 1005.4 hPa | 0 mm | - | - | - |
| 1777476688 | 9.44° C | 87% | 1005.4 hPa | 0 mm | - | - | - |
| 1777475785 | 8.89° C | 92% | 1005.7 hPa | 0 mm | - | - | - |
| 1777474882 | 8.33° C | 93% | 1006.1 hPa | 0.25 mm | - | - | - |
| 1777473980 | 7.78° C | 94% | 1006.3 hPa | 0.51 mm | - | - | - |
| 1777473077 | 7.78° C | 95% | 1006.4 hPa | 0.51 mm | - | - | - |
| 1777472175 | 7.78° C | 96% | 1006.8 hPa | 0.51 mm | - | - | - |
| 1777471272 | 7.78° C | 96% | 1007.3 hPa | 0.25 mm | - | - | - |
| 1777470370 | 7.78° C | 96% | 1007.5 hPa | 0 mm | - | - | - |
| 1777469467 | 8.33° C | 93% | 1007.6 hPa | 0.25 mm | - | - | - |
| 1777468565 | 8.33° C | 93% | 1007.1 hPa | 0.25 mm | - | - | - |
| 1777467662 | 8.33° C | 92% | 1007 hPa | 0.25 mm | - | - | - |
* Rain latest hour (hover to see other rain measurements)
** Current wind speed in m/s (hover to see current wind gust speed)